Regional Weather Roundup
Issued by NWS

Home | Current Version | Previous Version | Text Only | Print | Product List | Glossary On
Versions: 1 2 3 4 5 6 7 8 9 10 11 12 13 14 15 16 17 18 19 20 21 22 23 24 25 26 27 28 29 30 31 32 33 34 35 36 37 38 39 40 41 42 43 44 45 46 47 48 49 50
000
ASUS43 KTOP 011708
RWRKS

WEATHER ROUNDUP FOR KANSAS
NATIONAL WEATHER SERVICE GOODLAND KS
1200 PM CDT WED JUL 01 2015

NOTE:  "FAIR" INDICATES FEW OR NO CLOUDS BELOW 12,000 FEET WITH NO
SIGNIFICANT WEATHER AND/OR OBSTRUCTIONS TO VISIBILITY.

KSZ001>006-013>018-027>032-041>047-011800-
NORTHWEST KANSAS

CITY           SKY/WX    TMP DP  RH WIND       PRES   REMARKS
GOODLAND       SUNNY     90  58  33 NE15G22   30.00R
HAYS           MOSUNNY   90  59  35 N18G24    29.83R
HILL CITY      LGT RAIN  90  64  42 N18G25    29.88R
RUSSELL        PTSUNNY   88  58  36 N16       29.80R
$$

KSZ061>065-074>080-084>089-011800-
SOUTHWEST KANSAS

CITY           SKY/WX    TMP DP  RH WIND       PRES   REMARKS
DODGE CITY     PTSUNNY   85  58  39 NW12      29.88S
ELKHART          N/A     91  55  29 N12         N/A
GARDEN CITY    PTSUNNY   89  58  34 N9        29.91S
GREAT BEND     CLOUDY    84  61  45 NW12      29.82R
LIBERAL        MOSUNNY   90  59  35 W7        29.95S
PRATT          PTSUNNY   93  55  27 W15G21    29.83S
$$

KSZ066>073-081>083-090>101-011800-
SOUTHEAST KANSAS

CITY           SKY/WX    TMP DP  RH WIND       PRES   REMARKS
COFFEYVILLE    MOSUNNY   91  72  53 SW13      29.85F HX  98
HUTCHINSON     CLOUDY    91  59  33 SW10      29.81R
MEDICINE LODGE   N/A     95  63  34 W9G16     29.81S HX  96
PARSONS        MOSUNNY   88  73  61 S9        29.87F HX  95
WICHITA INTL   PTSUNNY   92  64  39 SW15      29.81R
WICHITA JABRA  MOSUNNY   92  64  39 SW10      29.83R
WINFIELD       SUNNY     95  67  39 SW23G31   29.83F HX  99
$$

KSZ007>012-019>026-033>040-048>060-102>105-011800-
NORTHEAST KANSAS

CITY           SKY/WX    TMP DP  RH WIND       PRES   REMARKS
CONCORDIA      PTSUNNY   89  65  44 N8        29.80R
EMPORIA        LGT RAIN  80  68  66 S17       29.81F
LAWRENCE       PTSUNNY   80  71  74 SE14      29.84R
MANHATTAN      SUNNY     90  64  42 VRB5      29.78R
MARYSVILLE     SUNNY     82  72  69 E3        29.82S
OLATHE IND     PTSUNNY   76  72  87 S15       29.87R
OLATHE EXE     PTSUNNY   75  71  87 S14       29.86R
SALINA         PTSUNNY   86  62  44 W8        29.78S
TOPEKA BILLARD MOSUNNY   83  72  69 SE10      29.82R
TOPEKA FORBES  MOSUNNY   85  71  63 S17       29.81F
$$


USA.gov is the U.S. government's official web portal to all federal, state and local government web resources and services.